CW1839 Catania IT current weather conditions

sailwx.info

Wind from 179

Air temperature 12.8° C
Dewpoint 7.2° C

Last reported at 2020-Jan-24 14:00 UTC.
Time now 2020-Jan-24 14:37 UTC

Location: N 37°30' E 015°06'.
View on Google Maps.

See reports from other nearby stations

  
Tides and Currents Weather Stations Pressure Air Temp Water Temp Dewpoint Dewpoint Depression Visibility Wind Speed Wind Dir Waves Ship Positions
date/time (UTC)wind fromknots sea level pressurealtimeterstation pressurevisibilityair tempwater tempwave heightnotes
2020-Jan-24 14:00 179 12.8
2020-Jan-24 13:15 179 12.8
2020-Jan-24 12:30 167 12.8
2020-Jan-24 12:00 181 12.8
2020-Jan-24 11:30 186 12.8
2020-Jan-24 11:15 189 12.8
2020-Jan-24 11:00 202 12.8
2020-Jan-24 10:45 205 12.8
2020-Jan-24 10:30 212 12.8
2020-Jan-24 10:15 243 12.2
2020-Jan-24 10:00 257 12.2
2020-Jan-24 09:45 316 11.7
2020-Jan-24 09:30 316 11.7
2020-Jan-24 09:00 316 11.1
2020-Jan-24 08:46 316 11.1
2020-Jan-24 08:15 316 10.6
2020-Jan-24 07:45 316 10.0
2020-Jan-24 07:30 316 10.0
2020-Jan-24 07:00 316 10.0
2020-Jan-24 06:45 316 9.4
2020-Jan-24 06:15 316 9.4
2020-Jan-24 06:00 316 9.4
2020-Jan-24 05:30 316 8.9
2020-Jan-24 05:15 318 8.9
2020-Jan-24 04:45 318 8.9
2020-Jan-24 04:30 316 8.3
2020-Jan-24 04:15 318 8.3
2020-Jan-24 04:00 328 8.3
2020-Jan-24 03:30 329 8.3
2020-Jan-24 03:00 329 7.8
2020-Jan-24 02:45 329 7.8
2020-Jan-24 02:30 329 7.2
2020-Jan-24 02:15 329 7.2
2020-Jan-24 02:00 329 7.2
2020-Jan-24 01:45 329 7.2
2020-Jan-24 01:30 329 7.2
2020-Jan-24 01:15 329 7.2
2020-Jan-24 00:45 329 7.2
2020-Jan-24 00:30 329 7.2
2020-Jan-24 00:16 329 7.2
2020-Jan-24 00:00 330 7.2
2020-Jan-23 23:45 330 7.8
2020-Jan-23 23:30 335 7.8
2020-Jan-23 23:15 333 7.8
2020-Jan-23 23:01 340 7.8
2020-Jan-23 22:45 350 8.3
2020-Jan-23 22:30 350 8.3
2020-Jan-23 22:15 350 8.3
2020-Jan-23 22:00 352 8.3
2020-Jan-23 21:45 352 8.3
2020-Jan-23 21:30 352 8.3
2020-Jan-23 21:00 354 8.9
2020-Jan-23 20:45 8.9
2020-Jan-23 20:30 349 8.9
2020-Jan-23 20:15 330 8.9
2020-Jan-23 20:00 349 8.9
2020-Jan-23 19:45 9.4
2020-Jan-23 19:30 9.4
2020-Jan-23 19:15 9.4
2020-Jan-23 19:00 001 10.0
2020-Jan-23 18:45 001 10.0
2020-Jan-23 18:30 001 10.0
2020-Jan-23 18:15 001 10.0
2020-Jan-23 17:45 008 10.6
2020-Jan-23 17:30 008 10.6
2020-Jan-23 17:15 008 10.6
2020-Jan-23 17:00 008 11.1
2020-Jan-23 16:46 008 11.1
2020-Jan-23 16:30 010 11.7
2020-Jan-23 16:15 010 11.7
2020-Jan-23 16:00 010 12.2
2020-Jan-23 15:45 045 12.2
2020-Jan-23 15:30 048 12.8
2020-Jan-23 15:15 048 12.8
2020-Jan-23 15:00 044 12.8
2020-Jan-23 14:45 056 13.3
2020-Jan-23 14:30 061 13.9
2020-Jan-23 14:15 082 14.4
2020-Jan-23 14:00 061 15.0
2020-Jan-23 13:45 113 14.4
2020-Jan-23 13:15 072 14.4
2020-Jan-23 13:00 107 14.4
2020-Jan-23 12:45 066 15.0
2020-Jan-23 12:00 103 15.6
2020-Jan-23 11:46 095 15.6
2020-Jan-23 11:30 085 15.6
2020-Jan-23 11:15 104 15.0
2020-Jan-23 11:00 089 15.0
2020-Jan-23 10:30 082 14.4
2020-Jan-23 10:15 092 13.9
2020-Jan-23 10:00 100 13.9
2020-Jan-23 09:45 119 13.9
2020-Jan-23 09:30 100 13.9
2020-Jan-23 09:15 246 13.3
2020-Jan-23 09:00 205 13.3
2020-Jan-23 08:45 264 12.8
2020-Jan-23 08:31 247 0 12.2
2020-Jan-23 07:45 271 0 11.1
2020-Jan-23 07:30 271 1 10.6
2020-Jan-23 07:00 280 0 9.4
2020-Jan-23 06:30 304 0 8.9
2020-Jan-23 06:15 280 8.9
2020-Jan-23 06:01 260 8.9
2020-Jan-23 05:30 304 8.3
2020-Jan-23 05:15 316 8.3
2020-Jan-23 05:00 296 8.3
2020-Jan-23 04:30 284 8.3
2020-Jan-23 04:15 291 7.8
2020-Jan-23 03:45 335 7.2
2020-Jan-23 03:15 333 7.2
2020-Jan-23 03:00 337 7.8
2020-Jan-23 02:45 339 7.8
2020-Jan-23 02:30 332 8.3
2020-Jan-23 02:15 315 8.9
2020-Jan-23 01:30 274 8.3
2020-Jan-23 01:15 285 8.3
2020-Jan-23 01:01 309 8.3
2020-Jan-23 00:45 304 7.8
2020-Jan-23 00:30 315 7.8
2020-Jan-23 00:00 328 7.2
2020-Jan-22 23:30 325 7.2
2020-Jan-22 23:00 316 7.8
2020-Jan-22 22:45 326 7.2
2020-Jan-22 22:30 326 7.2
2020-Jan-22 22:15 326 7.2
2020-Jan-22 21:45 271 8.3
2020-Jan-22 21:30 270 8.3
2020-Jan-22 21:15 270 8.3
2020-Jan-22 20:45 270 8.3
2020-Jan-22 20:15 270 9.4
2020-Jan-22 20:00 261 9.4
2020-Jan-22 19:45 205 9.4
2020-Jan-22 19:15 205 10.0
2020-Jan-22 19:01 205 10.0
2020-Jan-22 18:45 205 10.0
2020-Jan-22 18:15 205 10.6
2020-Jan-22 18:00 205 10.6
2020-Jan-22 17:45 205 11.1
2020-Jan-22 17:15 205 11.1
2020-Jan-22 17:00 205 11.1
2020-Jan-22 16:00 205 11.7
2020-Jan-22 15:45 205 11.7
2020-Jan-22 15:30 205 11.7
2020-Jan-22 15:15 168 11.7
2020-Jan-22 14:45 168 12.2
2020-Jan-22 14:30 164 12.2
2020-Jan-22 14:15 161 12.2